,,,PA_Meas_PMT16A,,PR_Meas_QMR101_102,,RH_Meas_QMH101,,SR_Meas_QMS101,,TA_Meas_QMH101,,GenWind,,GenWind,
date,time,status,PA,status,PR,status,RH,status,SR,status,TA,status,DirAvg,status,SpdAvg,
2008-06-23, 00:00:05,VALID,1005.91,VALID,0,VALID,95.506,VALID,0,VALID,23.5709,VALID,66,VALID,0.437109,
2008-06-23, 00:01:05,VALID,1005.86,VALID,0,VALID,95.4907,VALID,0,VALID,23.5709,VALID,66,VALID,0.263281,
2008-06-23, 00:02:05,VALID,1005.86,VALID,0,VALID,95.4831,VALID,0,VALID,23.5709,VALID,66,VALID,0.250391,
2008-06-23, 00:03:05,VALID,1005.86,VALID,0,VALID,95.4678,VALID,0,VALID,23.5496,VALID,66,VALID,0.248828,
2008-06-23, 00:04:05,VALID,1005.84,VALID,0,VALID,95.4754,VALID,0,VALID,23.5514,VALID,66,VALID,0.312109,
2008-06-23, 00:05:05,VALID,1005.82,VALID,0,VALID,95.4754,VALID,0,VALID,23.5302,VALID,66,VALID,0.373047,
2008-06-23, 00:06:05,VALID,1005.82,VALID,0,VALID,95.4831,VALID,0,VALID,23.5319,VALID,66,VALID,0.187891,
2008-06-23, 00:07:05,VALID,1005.82,VALID,0,VALID,95.4831,VALID,0,VALID,23.5302,VALID,66,VALID,0.29375,
2008-06-23, 00:08:05,VALID,1005.84,VALID,0,VALID,95.4831,VALID,0,VALID,23.5514,VALID,66,VALID,0.325391,
2008-06-23, 00:09:05,VALID,1005.83,VALID,0,VALID,95.5136,VALID,0,VALID,23.5514,VALID,66,VALID,0.324219,
2008-06-23, 00:10:05,VALID,1005.82,VALID,0,VALID,95.5212,VALID,0,VALID,23.5302,VALID,66,VALID,0.096875,
2008-06-23, 00:11:05,VALID,1005.84,VALID,0,VALID,95.5441,VALID,0,VALID,23.5319,VALID,66,VALID,0.121484,
2008-06-23, 00:12:05,VALID,1005.82,VALID,0,VALID,95.5212,VALID,0,VALID,23.5514,VALID,66,VALID,0.105469,
2008-06-23, 00:13:05,VALID,1005.82,VALID,0,VALID,95.5212,VALID,0,VALID,23.5514,VALID,66,VALID,0.162109,
2008-06-23, 00:14:05,VALID,1005.82,VALID,0,VALID,95.5212,VALID,0,VALID,23.5107,VALID,66,VALID,0.328125,
2008-06-23, 00:15:05,VALID,1005.83,VALID,0,VALID,95.5365,VALID,0,VALID,23.5089,VALID,66,VALID,0.196094,
2008-06-23, 00:16:05,VALID,1005.8,VALID,0,VALID,95.5441,VALID,0,VALID,23.5496,VALID,66,VALID,0.148828,
2008-06-23, 00:17:05,VALID,1005.79,VALID,0,VALID,95.5365,VALID,0,VALID,23.5284,VALID,66,VALID,0.0140625,
2008-06-23, 00:18:05,VALID,1005.76,VALID,0,VALID,95.5517,VALID,0,VALID,23.5496,VALID,66,VALID,0.187109,
2008-06-23, 00:19:05,VALID,1005.77,VALID,0,VALID,95.5594,VALID,0,VALID,23.5496,VALID,66,VALID,0.0332031,
2008-06-23, 00:20:05,VALID,1005.72,VALID,0,VALID,95.5441,VALID,0,VALID,23.5089,VALID,66,VALID,0.252344,
2008-06-23, 00:21:05,VALID,1005.75,VALID,0,VALID,95.5212,VALID,0,VALID,23.5089,VALID,66,VALID,0.280078,
2008-06-23, 00:22:05,VALID,1005.7,VALID,0,VALID,95.5136,VALID,0,VALID,23.4894,VALID,66,VALID,0.237891,
2008-06-23, 00:23:05,VALID,1005.71,VALID,0,VALID,95.4983,VALID,0,VALID,23.5107,VALID,66,VALID,0.253906,
2008-06-23, 00:24:05,VALID,1005.68,VALID,0,VALID,95.4907,VALID,0,VALID,23.47,VALID,66,VALID,0.167969,
2008-06-23, 00:25:05,VALID,1005.66,VALID,0,VALID,95.5365,VALID,0,VALID,23.47,VALID,66,VALID,0.223828,
2008-06-23, 00:26:05,VALID,1005.66,VALID,0,VALID,95.5746,VALID,0,VALID,23.4912,VALID,66,VALID,0.194922,
2008-06-23, 00:27:05,VALID,1005.64,VALID,0,VALID,95.5594,VALID,0,VALID,23.4912,VALID,66,VALID,0.154297,
2008-06-23, 00:28:05,VALID,1005.61,VALID,0,VALID,95.5899,VALID,0,VALID,23.47,VALID,66,VALID,0.157031,
2008-06-23, 00:29:05,VALID,1005.59,VALID,0,VALID,95.5975,VALID,0,VALID,23.4718,VALID,66,VALID,0.0472656,
2008-06-23, 00:30:05,VALID,1005.58,VALID,0,VALID,95.5899,VALID,0,VALID,23.4912,VALID,66,VALID,0,
2008-06-23, 00:31:05,VALID,1005.57,VALID,0,VALID,95.6051,VALID,0,VALID,23.4718,VALID,66,VALID,0.258203,
2008-06-23, 00:32:05,VALID,1005.55,VALID,0,VALID,95.6204,VALID,0,VALID,23.4523,VALID,66,VALID,0.269922,
2008-06-23, 00:33:05,VALID,1005.55,VALID,0,VALID,95.6356,VALID,0,VALID,23.4311,VALID,66,VALID,0,
2008-06-23, 00:34:05,VALID,1005.54,VALID,0,VALID,95.628,VALID,0,VALID,23.4505,VALID,66,VALID,0,
2008-06-23, 00:35:05,VALID,1005.53,VALID,0,VALID,95.628,VALID,0,VALID,23.4311,VALID,66,VALID,0.00078125,
2008-06-23, 00:36:05,VALID,1005.5,VALID,0,VALID,95.6356,VALID,0,VALID,23.4523,VALID,66,VALID,0,
2008-06-23, 00:37:05,VALID,1005.45,VALID,0,VALID,95.6204,VALID,0,VALID,23.4328,VALID,66,VALID,0,
2008-06-23, 00:38:05,VALID,1005.43,VALID,0,VALID,95.6051,VALID,0,VALID,23.4116,VALID,66,VALID,0,
2008-06-23, 00:39:05,VALID,1005.28,VALID,0,VALID,95.6585,VALID,0,VALID,23.3921,VALID,66,VALID,0,
2008-06-23, 00:40:05,VALID,1005.4,VALID,0,VALID,95.6433,VALID,0,VALID,23.4116,VALID,66,VALID,0,
2008-06-23, 00:41:05,VALID,1005.22,VALID,0,VALID,95.6509,VALID,0.100563,VALID,23.4328,VALID,66,VALID,0,
2008-06-23, 06:23:04,VALID,1005.56,VALID,0,VALID,96.6045,VALID,41.0297,VALID,22.6933,VALID,359,VALID,0.321875,
2008-06-23, 06:24:04,VALID,1005.56,VALID,0,VALID,96.6655,VALID,41.8342,VALID,22.7711,VALID,359,VALID,0.246484,
2008-06-23, 06:25:04,VALID,1005.5,VALID,0,VALID,96.6655,VALID,42.6387,VALID,22.7888,VALID,359,VALID,0.306641,
2008-06-23, 06:26:04,VALID,1005.53,VALID,0,VALID,96.6579,VALID,43.3426,VALID,22.8295,VALID,359,VALID,0.292188,
2008-06-23, 06:27:04,VALID,1005.5,VALID,0,VALID,96.635,VALID,44.0466,VALID,22.8489,VALID,359,VALID,0.224219,
2008-06-23, 06:28:04,VALID,1005.54,VALID,0,VALID,96.6198,VALID,44.6499,VALID,22.8507,VALID,359,VALID,0.273047,
2008-06-23, 06:29:04,VALID,1005.53,VALID,0,VALID,96.6045,VALID,45.2533,VALID,22.8489,VALID,359,VALID,0.150391,
2008-06-23, 06:30:04,VALID,1005.53,VALID,0,VALID,96.6121,VALID,45.6556,VALID,22.8879,VALID,359,VALID,0.219531,
2008-06-23, 06:31:04,VALID,1005.54,VALID,0,VALID,96.5893,VALID,45.9573,VALID,22.9073,VALID,359,VALID,0.232422,
2008-06-23, 06:32:04,VALID,1005.57,VALID,0,VALID,96.5969,VALID,46.3595,VALID,22.8861,VALID,359,VALID,0.0636719,
2008-06-23, 06:33:04,VALID,1005.58,VALID,0,VALID,96.6045,VALID,46.7618,VALID,22.9463,VALID,359,VALID,0,
2008-06-23, 06:34:04,VALID,1005.58,VALID,0,VALID,96.6045,VALID,47.164,VALID,22.9657,VALID,359,VALID,0.00351562,
2008-06-23, 06:35:04,VALID,1005.6,VALID,0,VALID,96.6045,VALID,47.6668,VALID,22.9834,VALID,359,VALID,0.180859,
2008-06-23, 06:36:04,VALID,1005.6,VALID,0,VALID,96.5969,VALID,47.9685,VALID,23.0453,VALID,359,VALID,0.25,
2008-06-23, 06:37:04,VALID,1005.61,VALID,0,VALID,96.5969,VALID,48.3708,VALID,23.0436,VALID,359,VALID,0.303906,
2008-06-23, 06:38:04,VALID,1005.62,VALID,0,VALID,96.5893,VALID,49.3764,VALID,23.063,VALID,359,VALID,0.323438,
2008-06-23, 06:39:04,VALID,1005.63,VALID,0,VALID,96.6121,VALID,50.8848,VALID,23.1002,VALID,359,VALID,0.207031,
2008-06-23, 06:40:04,VALID,1005.64,VALID,0,VALID,96.6274,VALID,52.3933,VALID,23.1798,VALID,359,VALID,0.272266,
2008-06-23, 06:41:04,VALID,1005.64,VALID,0,VALID,96.6274,VALID,53.2984,VALID,23.2577,VALID,359,VALID,0.260938,
2008-06-23, 06:42:04,VALID,1005.64,VALID,0,VALID,96.6274,VALID,54.0023,VALID,23.3355,VALID,359,VALID,0.165625,
2008-06-23, 06:43:04,VALID,1005.68,VALID,0,VALID,96.6198,VALID,54.4046,VALID,23.4134,VALID,359,VALID,0.192188,
2008-06-23, 06:44:04,VALID,1005.7,VALID,0,VALID,96.6121,VALID,54.8068,VALID,23.4718,VALID,359,VALID,0.312109,
2008-06-23, 06:45:04,VALID,1005.7,VALID,0,VALID,96.5816,VALID,55.0079,VALID,23.5302,VALID,359,VALID,0.286719,
2008-06-23, 06:46:04,VALID,1005.68,VALID,0,VALID,96.5969,VALID,55.3096,VALID,23.5885,VALID,359,VALID,0.269141,
2008-06-23, 06:47:04,VALID,1005.7,VALID,0,VALID,96.5664,VALID,56.4158,VALID,23.7053,VALID,359,VALID,0.207031,
2008-06-23, 06:48:04,VALID,1005.65,VALID,0,VALID,96.5816,VALID,56.7175,VALID,23.8416,VALID,359,VALID,0.174609,
2008-06-23, 06:49:04,VALID,1005.67,VALID,0,VALID,96.5816,VALID,56.7175,VALID,23.9973,VALID,359,VALID,0.129688,
2008-06-23, 06:50:04,VALID,1005.64,VALID,0,VALID,96.5664,VALID,56.9186,VALID,24.1336,VALID,359,VALID,0.187891,
2008-06-23, 06:51:04,VALID,1005.63,VALID,0,VALID,96.5587,VALID,57.3209,VALID,24.2912,VALID,359,VALID,0.162891,
2008-06-23, 06:52:04,VALID,1005.66,VALID,0,VALID,96.5282,VALID,57.522,VALID,24.3867,VALID,359,VALID,0.121094,
2008-06-23, 06:53:04,VALID,1005.64,VALID,0,VALID,96.4825,VALID,57.522,VALID,24.523,VALID,359,VALID,0.234375,
2008-06-23, 06:54:04,VALID,1005.65,VALID,0,VALID,96.4519,VALID,57.7231,VALID,24.6204,VALID,359,VALID,0.286719,
2008-06-23, 06:55:04,VALID,1005.66,VALID,0,VALID,96.4138,VALID,58.4271,VALID,24.6593,VALID,359,VALID,0.301562,
2008-06-23, 06:56:04,VALID,1005.72,VALID,0,VALID,96.3222,VALID,60.0361,VALID,24.7761,VALID,359,VALID,0.375391,
2008-06-23, 06:57:04,VALID,1005.73,VALID,0,VALID,96.2612,VALID,121.882,VALID,24.8735,VALID,359,VALID,0.457812,
2008-06-23, 06:58:04,VALID,1005.76,VALID,0,VALID,96.2002,VALID,195.193,VALID,24.9728,VALID,359,VALID,0.548828,
2008-06-23, 06:59:04,VALID,1005.8,VALID,0,VALID,96.0934,VALID,209.875,VALID,25.0896,VALID,359,VALID,0.592188,
2008-06-23, 07:00:04,VALID,1005.85,VALID,0,VALID,96.0323,VALID,213.998,VALID,25.1267,VALID,359,VALID,0.537891,
2008-06-23, 07:01:04,VALID,1005.82,VALID,0,VALID,95.9027,VALID,217.819,VALID,25.224,VALID,359,VALID,0.483203,
2008-06-23, 07:02:04,VALID,1005.86,VALID,0,VALID,95.7119,VALID,220.535,VALID,25.3409,VALID,359,VALID,0.455859,
2008-06-23, 07:03:04,VALID,1005.91,VALID,0,VALID,95.5746,VALID,223.853,VALID,25.4383,VALID,359,VALID,0.564062,
2008-06-23, 07:04:04,VALID,1005.9,VALID,0,VALID,95.4983,VALID,226.669,VALID,25.5746,VALID,359,VALID,0.396875,
2008-06-23, 07:05:04,VALID,1005.91,VALID,0,VALID,95.3763,VALID,229.887,VALID,25.7324,VALID,359,VALID,0.400391,
2008-06-23, 07:06:04,VALID,1005.94,VALID,0,VALID,95.033,VALID,231.999,VALID,25.8103,VALID,359,VALID,0.542188,
2008-06-23, 07:07:04,VALID,1005.98,VALID,0,VALID,94.6439,VALID,233.205,VALID,25.8863,VALID,357,VALID,0.396875,
2008-06-23, 07:08:04,VALID,1005.99,VALID,0,VALID,94.4303,VALID,233.608,VALID,25.9622,VALID,357,VALID,0.460938,
2008-06-23, 07:09:04,VALID,1006.01,VALID,0,VALID,94.148,VALID,236.423,VALID,26.0616,VALID,357,VALID,0.476172,
2008-06-23, 07:10:04,VALID,1006.05,VALID,0,VALID,93.7742,VALID,237.831,VALID,26.159,VALID,357,VALID,0.482031,
2008-06-23, 07:11:04,VALID,1006.03,VALID,0,VALID,93.3241,VALID,240.748,VALID,26.2349,VALID,357,VALID,0.550781,
2008-06-23, 07:12:04,VALID,1006.04,VALID,0,VALID,92.9961,VALID,240.748,VALID,26.3343,VALID,357,VALID,0.519531,
2008-06-23, 07:13:04,VALID,1006.05,VALID,0,VALID,92.0806,VALID,242.256,VALID,26.3927,VALID,357,VALID,0.594922,
2008-06-23, 07:14:04,VALID,1006.02,VALID,0,VALID,91.4398,VALID,235.418,VALID,26.4512,VALID,357,VALID,0.579687,
2008-06-23, 07:15:04,VALID,1006.07,VALID,0,VALID,90.982,VALID,233.507,VALID,26.5096,VALID,357,VALID,0.453906,
2008-06-23, 07:16:04,VALID,1006.08,VALID,0,VALID,90.7532,VALID,232.2,VALID,26.5896,VALID,357,VALID,0.538672,
2008-06-23, 07:17:04,VALID,1006.06,VALID,0,VALID,90.8295,VALID,233.306,VALID,26.6675,VALID,357,VALID,0.379297,
2008-06-23, 07:18:04,VALID,1006.06,VALID,0,VALID,89.9216,VALID,239.44,VALID,26.7045,VALID,357,VALID,0.365625,
2008-06-23, 07:19:04,VALID,1006.09,VALID,0,VALID,90.0513,VALID,246.178,VALID,26.8234,VALID,357,VALID,0.298438,
2008-06-23, 07:20:04,VALID,1006.08,VALID,0,VALID,89.2732,VALID,255.43,VALID,26.9208,VALID,357,VALID,0.187109,
2008-06-23, 07:21:04,VALID,1006.08,VALID,0,VALID,88.5255,VALID,263.978,VALID,26.9967,VALID,357,VALID,0.378125,
2008-06-23, 07:22:04,VALID,1006.13,VALID,0,VALID,87.9915,VALID,270.917,VALID,27.0767,VALID,357,VALID,0.317969,
2008-06-23, 07:23:04,VALID,1006.12,VALID,0,VALID,87.7932,VALID,263.676,VALID,27.1742,VALID,356,VALID,0.433594,
2008-06-23, 07:24:04,VALID,1006.13,VALID,0,VALID,87.7779,VALID,270.816,VALID,27.3106,VALID,356,VALID,0.336719,
2008-06-23, 07:25:04,VALID,1006.15,VALID,0,VALID,85.8173,VALID,269.609,VALID,27.408,VALID,355,VALID,0.446484,
2008-06-23, 07:26:04,VALID,1006.17,VALID,0,VALID,86.1529,VALID,274.436,VALID,27.486,VALID,354,VALID,0,
2008-06-23, 07:27:04,VALID,1006.19,VALID,0,VALID,84.1847,VALID,276.045,VALID,27.6419,VALID,339,VALID,0.363672,
2008-06-23, 07:28:04,VALID,1006.18,VALID,0,VALID,84.7797,VALID,281.275,VALID,27.7762,VALID,339,VALID,0.254687,
2008-06-23, 07:29:04,VALID,1006.23,VALID,0,VALID,83.4065,VALID,288.716,VALID,27.9148,VALID,358,VALID,0.667578,
2008-06-23, 07:30:04,VALID,1006.29,VALID,0,VALID,82.3766,VALID,287.308,VALID,27.8542,VALID,3,VALID,0.498047,
2008-06-23, 07:31:04,VALID,1006.31,VALID,0,VALID,82.1096,VALID,290.426,VALID,27.8173,VALID,10,VALID,0.688672,
2008-06-23, 07:32:04,VALID,1006.31,VALID,0,VALID,82.6742,VALID,288.213,VALID,27.7199,VALID,27,VALID,0.652344,
2008-06-23, 07:33:04,VALID,1006.33,VALID,0,VALID,81.1484,VALID,285.699,VALID,27.6224,VALID,30,VALID,0.471094,
2008-06-23, 07:34:04,VALID,1006.28,VALID,0,VALID,81.0874,VALID,294.75,VALID,27.605,VALID,30,VALID,0.335547,
2008-06-23, 07:35:04,VALID,1006.28,VALID,0,VALID,81.9113,VALID,297.264,VALID,27.7199,VALID,30,VALID,0,
2008-06-23, 07:36:04,VALID,1006.3,VALID,0,VALID,80.9043,VALID,299.476,VALID,27.8173,VALID,30,VALID,0.228516,
2008-06-23, 07:37:04,VALID,1006.28,VALID,0,VALID,80.8966,VALID,303.6,VALID,27.9516,VALID,30,VALID,0.166406,
2008-06-23, 07:38:04,VALID,1006.3,VALID,0,VALID,80.0117,VALID,300.683,VALID,28.0881,VALID,31,VALID,0.342187,
2008-06-23, 07:39:04,VALID,1006.31,VALID,0,VALID,80.1261,VALID,302.996,VALID,28.0512,VALID,45,VALID,0.403906,
2008-06-23, 07:40:04,VALID,1006.3,VALID,0,VALID,80.3931,VALID,308.225,VALID,28.0707,VALID,46,VALID,0.242188,
2008-06-23, 07:41:04,VALID,1006.33,VALID,0,VALID,79.2183,VALID,314.661,VALID,28.1118,VALID,181,VALID,0.502734,
2008-06-23, 07:42:04,VALID,1006.36,VALID,0,VALID,79.676,VALID,327.835,VALID,28.0339,VALID,181,VALID,0.417969,
2008-06-23, 07:43:04,VALID,1006.39,VALID,0,VALID,78.6156,VALID,334.372,VALID,27.9148,VALID,118,VALID,0.820313,
2008-06-23, 07:44:04,VALID,1006.42,VALID,0,VALID,79.0352,VALID,337.59,VALID,27.9364,VALID,114,VALID,0.266406,
2008-06-23, 07:45:04,VALID,1006.4,VALID,0,VALID,79.9278,VALID,334.875,VALID,28.0728,VALID,114,VALID,0.364453,
2008-06-23, 07:46:04,VALID,1006.4,VALID,0,VALID,76.7008,VALID,341.311,VALID,28.1097,VALID,134,VALID,0.544531,
2008-06-23, 07:47:04,VALID,1006.41,VALID,0,VALID,76.2049,VALID,345.735,VALID,28.0902,VALID,130,VALID,0.657031,
2008-06-23, 07:48:04,VALID,1006.46,VALID,0,VALID,77.1738,VALID,350.663,VALID,28.0317,VALID,129,VALID,0.880469,
2008-06-23, 07:49:04,VALID,1006.47,VALID,0,VALID,77.2882,VALID,358.607,VALID,27.9733,VALID,139,VALID,0.461719,
2008-06-23, 07:50:04,VALID,1006.48,VALID,0,VALID,77.2958,VALID,365.144,VALID,27.9538,VALID,165,VALID,0.810547,
2008-06-23, 07:51:04,VALID,1006.47,VALID,0,VALID,76.922,VALID,371.077,VALID,27.8953,VALID,179,VALID,0.877734,
2008-06-23, 07:52:04,VALID,1006.49,VALID,0,VALID,78.7911,VALID,373.29,VALID,27.8563,VALID,185,VALID,0.906641,
2008-06-23, 07:53:04,VALID,1006.47,VALID,0,VALID,78.5851,VALID,373.994,VALID,27.8542,VALID,134,VALID,0.486719,
2008-06-23, 07:54:04,VALID,1006.46,VALID,0,VALID,78.0053,VALID,343.925,VALID,27.8932,VALID,137,VALID,0.545313,
2008-06-23, 07:55:04,VALID,1006.45,VALID,0,VALID,77.0135,VALID,366.351,VALID,27.8737,VALID,190,VALID,0.751172,
2008-06-23, 07:56:04,VALID,1006.45,VALID,0,VALID,76.1896,VALID,243.664,VALID,27.8152,VALID,184,VALID,0.640234,
2008-06-23, 07:57:04,VALID,1006.46,VALID,0,VALID,77.8909,VALID,311.544,VALID,27.7783,VALID,212,VALID,0.472266,
2008-06-23, 07:58:04,VALID,1006.46,VALID,0,VALID,78.2418,VALID,246.48,VALID,27.7372,VALID,209,VALID,0.482422,
2008-06-23, 07:59:04,VALID,1006.45,VALID,0,VALID,78.4325,VALID,259.352,VALID,27.7588,VALID,152,VALID,0.652344,
2008-06-23, 08:00:04,VALID,1006.43,VALID,0,VALID,78.936,VALID,283.487,VALID,27.7567,VALID,73,VALID,0.353125,
2008-06-23, 08:01:04,VALID,1006.46,VALID,0,VALID,78.3105,VALID,295.655,VALID,27.8542,VALID,73,VALID,0.24375,
2008-06-23, 08:02:04,VALID,1006.43,VALID,0,VALID,77.0517,VALID,279.867,VALID,27.9927,VALID,42,VALID,0.699219,
2008-06-23, 08:03:04,VALID,1006.46,VALID,0,VALID,77.4942,VALID,418.945,VALID,28.0881,VALID,43,VALID,0.0550781,
2008-06-23, 08:04:04,VALID,1006.42,VALID,0,VALID,75.6861,VALID,200.12,VALID,28.1466,VALID,20,VALID,1.13984,
2008-06-23, 08:05:04,VALID,1006.44,VALID,0,VALID,76.5329,VALID,198.511,VALID,28.0902,VALID,29,VALID,0.842969,
2008-06-23, 08:06:04,VALID,1006.43,VALID,0,VALID,78.3486,VALID,187.751,VALID,28.0101,VALID,111,VALID,1.14219,
2008-06-23, 08:07:04,VALID,1006.41,VALID,0,VALID,76.1057,VALID,197.405,VALID,27.8368,VALID,114,VALID,0.858984,
2008-06-23, 08:08:04,VALID,1006.42,VALID,0,VALID,75.9455,VALID,189.662,VALID,27.7394,VALID,130,VALID,0.730859,
2008-06-23, 08:09:04,VALID,1006.42,VALID,0,VALID,76.6474,VALID,195.796,VALID,27.6983,VALID,74,VALID,0.617578,
2008-06-23, 08:10:04,VALID,1006.4,VALID,0,VALID,77.3111,VALID,222.445,VALID,27.7004,VALID,41,VALID,0.543359,
2008-06-23, 08:11:04,VALID,1006.43,VALID,0,VALID,77.4713,VALID,216.311,VALID,27.6809,VALID,28,VALID,0.751953,
2008-06-23, 08:12:04,VALID,1006.42,VALID,0,VALID,77.4637,VALID,195.595,VALID,27.6614,VALID,28,VALID,0.453516,
2008-06-23, 08:13:04,VALID,1006.4,VALID,0,VALID,75.1902,VALID,183.326,VALID,27.7004,VALID,53,VALID,0.808594,
2008-06-23, 08:14:04,VALID,1006.43,VALID,0,VALID,76.4872,VALID,203.037,VALID,27.6593,VALID,29,VALID,0.466797,
2008-06-23, 08:15:04,VALID,1006.4,VALID,0,VALID,77.0288,VALID,245.977,VALID,27.683,VALID,107,VALID,0.953125,
2008-06-23, 08:16:04,VALID,1006.41,VALID,0,VALID,76.0294,VALID,285.9,VALID,27.5639,VALID,96,VALID,1.13594,
2008-06-23, 08:17:04,VALID,1006.37,VALID,0,VALID,76.3193,VALID,302.795,VALID,27.5444,VALID,88,VALID,1.25078,
2008-06-23, 08:18:04,VALID,1006.38,VALID,0,VALID,76.7236,VALID,348.953,VALID,27.5834,VALID,84,VALID,0.675,
2008-06-23, 08:19:04,VALID,1006.39,VALID,0,VALID,76.6702,VALID,355.389,VALID,27.6224,VALID,98,VALID,0.514844,
2008-06-23, 08:20:04,VALID,1006.37,VALID,0,VALID,77.1814,VALID,313.455,VALID,27.7783,VALID,100,VALID,0.395312,
2008-06-23, 08:21:04,VALID,1006.37,VALID,0,VALID,76.8228,VALID,411.504,VALID,27.7978,VALID,136,VALID,1.44922,
2008-06-23, 08:22:04,VALID,1006.33,VALID,0,VALID,76.594,VALID,409.392,VALID,27.7588,VALID,109,VALID,0.922266,
2008-06-23, 08:23:04,VALID,1006.31,VALID,0,VALID,75.6022,VALID,339.299,VALID,27.7178,VALID,142,VALID,0.541406,
2008-06-23, 08:24:04,VALID,1006.32,VALID,0,VALID,76.4414,VALID,331.657,VALID,27.7957,VALID,145,VALID,0.693359,
2008-06-23, 08:25:04,VALID,1006.31,VALID,0,VALID,75.1521,VALID,318.181,VALID,27.7762,VALID,109,VALID,1.40469,
2008-06-23, 08:26:04,VALID,1006.33,VALID,0,VALID,75.3733,VALID,354.786,VALID,27.7567,VALID,109,VALID,0.883594,
2008-06-23, 08:27:04,VALID,1006.33,VALID,0,VALID,76.1057,VALID,409.392,VALID,27.8368,VALID,108,VALID,0.324219,
2008-06-23, 08:28:04,VALID,1006.35,VALID,0,VALID,77.0212,VALID,403.257,VALID,27.9343,VALID,87,VALID,0.828516,
2008-06-23, 08:29:04,VALID,1006.37,VALID,0,VALID,76.327,VALID,414.219,VALID,28.0122,VALID,57,VALID,0.851563,
2008-06-23, 08:30:04,VALID,1006.35,VALID,0,VALID,75.236,VALID,554.102,VALID,28.1292,VALID,25,VALID,0.952734,
2008-06-23, 08:31:04,VALID,1006.34,VALID,0,VALID,73.9544,VALID,614.339,VALID,28.2267,VALID,44,VALID,0.415234,
2008-06-23, 08:32:04,VALID,1006.32,VALID,0,VALID,75.1216,VALID,686.845,VALID,28.3631,VALID,57,VALID,0.137109,
2008-06-23, 08:33:04,VALID,1006.31,VALID,0,VALID,77.0059,VALID,455.248,VALID,28.5776,VALID,33,VALID,0.948828,
2008-06-23, 08:34:04,VALID,1006.29,VALID,0,VALID,72.9855,VALID,462.891,VALID,28.6166,VALID,44,VALID,0.909766,
2008-06-23, 08:35:04,VALID,1006.27,VALID,0,VALID,74.3129,VALID,393.905,VALID,28.5754,VALID,43,VALID,0.7875,
2008-06-23, 08:36:04,VALID,1006.27,VALID,0,VALID,73.6568,VALID,488.233,VALID,28.5581,VALID,21,VALID,1.05234,
2008-06-23, 08:37:04,VALID,1006.26,VALID,0,VALID,72.8329,VALID,555.51,VALID,28.5971,VALID,79,VALID,0.403906,
2008-06-23, 08:38:04,VALID,1006.23,VALID,0,VALID,70.4603,VALID,426.286,VALID,28.714,VALID,23,VALID,0.667969,
2008-06-23, 08:39:04,VALID,1006.21,VALID,0,VALID,73.2296,VALID,352.875,VALID,28.8115,VALID,22,VALID,0.189844,
2008-06-23, 08:40:04,VALID,1006.22,VALID,0,VALID,72.0777,VALID,366.753,VALID,28.909,VALID,78,VALID,0.927734,
2008-06-23, 08:41:04,VALID,1006.17,VALID,0,VALID,72.7643,VALID,387.871,VALID,28.9307,VALID,48,VALID,0.763281,
2008-06-23, 08:42:04,VALID,1006.1,VALID,0,VALID,72.2989,VALID,448.812,VALID,28.8505,VALID,18,VALID,1.21992,
2008-06-23, 08:43:04,VALID,1006.14,VALID,0,VALID,70.9944,VALID,533.587,VALID,28.7704,VALID,68,VALID,0.659766,
2008-06-23, 08:44:04,VALID,1006.05,VALID,0,VALID,72.6269,VALID,381.536,VALID,28.7898,VALID,63,VALID,0.998438,
2008-06-23, 08:45:04,VALID,1006.07,VALID,0,VALID,70.4375,VALID,396.922,VALID,28.7898,VALID,30,VALID,0.735937,
2008-06-23, 08:46:04,VALID,1006.07,VALID,0,VALID,70.056,VALID,394.508,VALID,28.7704,VALID,98,VALID,0.537891,
2008-06-23, 08:47:04,VALID,1006.09,VALID,0,VALID,71.6352,VALID,442.075,VALID,28.7509,VALID,80,VALID,1.11914,
2008-06-23, 08:48:04,VALID,1006.06,VALID,0,VALID,69.85,VALID,580.952,VALID,28.7314,VALID,67,VALID,1.05664,
2008-06-23, 08:49:04,VALID,1006.07,VALID,0,VALID,73.3669,VALID,714.801,VALID,28.7704,VALID,75,VALID,0.396094,
2008-06-23, 08:50:04,VALID,1006.11,VALID,0,VALID,70.9867,VALID,639.882,VALID,28.987,VALID,43,VALID,0.646875,
2008-06-23, 08:51:04,VALID,1006.06,VALID,0,VALID,71.5055,VALID,369.871,VALID,29.299,VALID,40,VALID,0.384766,
2008-06-23, 08:52:04,VALID,1006.06,VALID,0,VALID,68.0725,VALID,426.387,VALID,29.4355,VALID,35,VALID,0.286719,
2008-06-23, 08:53:04,VALID,1006.06,VALID,0,VALID,67.9733,VALID,379.323,VALID,29.5135,VALID,184,VALID,0.408984,
2008-06-23, 08:54:04,VALID,1006.02,VALID,0,VALID,70.0789,VALID,293.845,VALID,29.3185,VALID,149,VALID,1.22969,
2008-06-23, 08:55:04,VALID,1006,VALID,0,VALID,68.6218,VALID,248.692,VALID,28.9263,VALID,121,VALID,1.7043,
2008-06-23, 08:56:04,VALID,1005.99,VALID,0,VALID,70.3001,VALID,240.848,VALID,28.6556,VALID,134,VALID,1.2418,
2008-06-23, 08:57:04,VALID,1005.97,VALID,0,VALID,70.5671,VALID,242.156,VALID,28.4584,VALID,111,VALID,1.72383,
2008-06-23, 08:58:04,VALID,1005.98,VALID,0,VALID,70.3078,VALID,266.995,VALID,28.322,VALID,103,VALID,1.29141,
2008-06-23, 08:59:04,VALID,1005.99,VALID,0,VALID,71.4216,VALID,268.805,VALID,28.2245,VALID,85,VALID,0.444531,
2008-06-23, 09:00:04,VALID,1005.98,VALID,0,VALID,70.7045,VALID,254.324,VALID,28.2656,VALID,32,VALID,0.676562,
2008-06-23, 09:01:04,VALID,1006,VALID,0,VALID,69.9034,VALID,248.692,VALID,28.2656,VALID,352,VALID,0.366797,
2008-06-23, 09:02:04,VALID,1005.96,VALID,0,VALID,70.674,VALID,254.123,VALID,28.2656,VALID,330,VALID,0.435937,
2008-06-23, 09:03:04,VALID,1005.99,VALID,0,VALID,70.6434,VALID,260.659,VALID,28.3436,VALID,323,VALID,0.597266,
2008-06-23, 09:04:04,VALID,1005.98,VALID,0,VALID,70.3383,VALID,264.581,VALID,28.3631,VALID,333,VALID,0.530859,
2008-06-23, 09:05:04,VALID,1005.97,VALID,0,VALID,71.1393,VALID,243.463,VALID,28.4,VALID,333,VALID,0.309375,
2008-06-23, 09:06:04,VALID,1005.96,VALID,0,VALID,70.7426,VALID,239.038,VALID,28.4389,VALID,333,VALID,0.472266,
2008-06-23, 09:07:04,VALID,1005.96,VALID,0,VALID,73.0465,VALID,242.156,VALID,28.5191,VALID,337,VALID,0.466797,
2008-06-23, 09:08:04,VALID,1005.95,VALID,0,VALID,70.4985,VALID,249.296,VALID,28.4974,VALID,339,VALID,0.466797,
2008-06-23, 09:09:04,VALID,1005.95,VALID,0,VALID,71.1546,VALID,267.196,VALID,28.4779,VALID,8,VALID,0.0636719,
2008-06-23, 09:10:04,VALID,1005.95,VALID,0,VALID,70.3307,VALID,270.917,VALID,28.4584,VALID,8,VALID,0.426562,
2008-06-23, 09:11:04,VALID,1005.95,VALID,0,VALID,69.1405,VALID,276.749,VALID,28.4216,VALID,8,VALID,0.226563,
2008-06-23, 09:12:04,VALID,1005.94,VALID,0,VALID,73.161,VALID,286.102,VALID,28.4194,VALID,164,VALID,0.835156,
2008-06-23, 09:13:04,VALID,1005.9,VALID,0,VALID,74.8164,VALID,297.666,VALID,28.3826,VALID,185,VALID,0.910937,
2008-06-23, 09:14:04,VALID,1005.91,VALID,0,VALID,75.5717,VALID,318.885,VALID,28.3241,VALID,170,VALID,0.530078,
2008-06-23, 09:15:04,VALID,1005.91,VALID,0,VALID,76.2278,VALID,350.261,VALID,28.2267,VALID,149,VALID,0.898438,
2008-06-23, 09:16:04,VALID,1005.92,VALID,0,VALID,77.8985,VALID,443.382,VALID,28.1855,VALID,151,VALID,0.378125,
2008-06-23, 09:17:04,VALID,1005.95,VALID,0,VALID,77.0212,VALID,546.66,VALID,28.2635,VALID,202,VALID,1.57305,